Regional Weather Roundup
Issued by NWS

Home | Current Version | Previous Version | Text Only | Print | Product List | Glossary On
Versions: 1 2 3 4 5 6 7 8 9 10 11 12 13 14 15 16 17 18 19 20 21 22 23 24 25 26 27 28 29 30 31 32 33 34 35 36 37 38 39 40 41 42 43 44 45 46 47 48 49 50
000
ASUS43 KMKX 300021
RWRWI

WISCONSIN REGIONAL WEATHER ROUNDUP
NATIONAL WEATHER SERVICE MILWAUKEE/SULLIVAN WI
700 PM CDT FRI MAY 29 2015

NOTE: "FAIR" INDICATES FEW OR NO CLOUDS BELOW 12,000 FEET WITH NO
SIGNIFICANT WEATHER AND/OR OBSTRUCTIONS TO VISIBILITY.

WIZ001-002-006>008-014>016-023>028-300100-
NORTHWEST WISCONSIN

CITY           SKY/WX    TMP DP  RH WIND       PRES   REMARKS
SUPERIOR ARPT  CLOUDY    56  49  77 N9        30.00R
6HR MIN TEMP:  56; 6HR MAX TEMP:  67;

ASHLAND        LGT RAIN  58  57  97 N6        29.97R
6HR MIN TEMP:  58; 6HR MAX TEMP:  71; 6HR PCP:  0.05;

HAYWARD        LGT RAIN  59  56  89 N10       29.96R
6HR MIN TEMP:  59; 6HR MAX TEMP:  67; 6HR PCP:  0.18;

SIREN          LGT RAIN  56  55  94 N12       29.97R
6HR MIN TEMP:  56; 6HR MAX TEMP:  65; 6HR PCP:  0.32;

CUMBERLAND     DRIZZLE   61  57  88 N13       29.93S
RICE LAKE      LGT RAIN  62  59  89 N15G23    29.93S
6HR MIN TEMP:  62; 6HR MAX TEMP:  69; 6HR PCP:  0.75;

CHETEK         DRIZZLE   64  63  98 N5        29.90S
6HR MIN TEMP:  63; 6HR MAX TEMP:  70; 6HR PCP:  0.85;

LADYSMITH      RAIN      63  62  94 N9        29.93S
6HR MIN TEMP:  63; 6HR MAX TEMP:  70; 6HR PCP:  0.65;

EAU CLAIRE     CLOUDY    65  62  90 N7        29.88R
6HR MIN TEMP:  65; 6HR MAX TEMP:  72; 6HR PCP:  0.16;

MENOMONIE      CLOUDY    65  63  92 N9        29.90R
6HR MIN TEMP:  65; 6HR MAX TEMP:  73; 6HR PCP:  0.16;

NEW RICHMOND   DRIZZLE   62  61  96 N17       29.93R
6HR MIN TEMP:  62; 6HR MAX TEMP:  71; 6HR PCP:  0.16;

OSCEOLA        LGT RAIN  61  61 100 N14       29.96R
6HR MIN TEMP:  61; 6HR MAX TEMP:  71; 6HR PCP:  0.95;

$$

WIZ003>005-009-010-017-018-300100-
NORTH CENTRAL WISCONSIN

CITY           SKY/WX    TMP DP  RH WIND       PRES   REMARKS
MANITOWISH WTR LGT RAIN  58  58 100 N10G16    29.94R
6HR MIN TEMP:  58; 6HR MAX TEMP:  69; 6HR PCP:  0.16;

ARBOR VITAE    LGT RAIN  62  60  93 N9        29.93R
6HR MIN TEMP:  62; 6HR MAX TEMP:  72; 6HR PCP:  0.75;

WOODRUFF       LGT RAIN  62  60  93 N9        29.93R
6HR MIN TEMP:  62; 6HR MAX TEMP:  72; 6HR PCP:  0.75;

RHINELANDER    LGT RAIN  61  59  93 N7        29.93R
6HR MIN TEMP:  62; 6HR MAX TEMP:  72; 6HR PCP:  0.01;

EAGLE RIVER    LGT RAIN  60  60 100 N6        29.92R
6HR MIN TEMP:  60; 6HR MAX TEMP:  70; 6HR PCP:  0.38;

LAND O LAKES   LGT RAIN  61  60  96 N6        29.94R
6HR MIN TEMP:  61; 6HR MAX TEMP:  73; 6HR PCP:  0.05;

PHILLIPS       LGT RAIN  61  60  95 N8        29.92R
6HR MIN TEMP:  61; 6HR MAX TEMP:  69; 6HR PCP:  0.33;

TOMAHAWK       RAIN      62  60  93 NW5       29.93R
6HR MIN TEMP:  62; 6HR MAX TEMP:  69;

MEDFORD        RAIN      64  62  94 N8        29.91R
6HR MIN TEMP:  64; 6HR MAX TEMP:  71; 6HR PCP:  0.10;

MERRILL        LGT RAIN  67  66  99 CALM      29.91R
$$

WIZ029-030-035-036-043>047-300100-
CENTRAL WISCONSIN

CITY           SKY/WX    TMP DP  RH WIND       PRES   REMARKS
WAUSAU         LGT RAIN  66  65  96 SW5       29.89R FOG
6HR MIN TEMP:  65; 6HR MAX TEMP:  77; 6HR PCP:  0.46;

MOSINEE        CLOUDY    66  64  94 W5        29.91R
MARSHFIELD     LGT RAIN  67  63  87 W3        29.89S
6HR MIN TEMP:  67; 6HR MAX TEMP:  77; 6HR PCP:  0.22;

STEVENS POINT  RAIN      63  62  96 CALM      29.91S
6HR MIN TEMP:  63; 6HR MAX TEMP:  78; 6HR PCP:  0.48;

WAUPACA        PTSUNNY   76  66  70 SW10G26   29.85R
6HR MIN TEMP:  76; 6HR MAX TEMP:  82;

WAUTOMA        PTSUNNY   76  67  73 W8        29.87R
6HR MIN TEMP:  76; 6HR MAX TEMP:  81;

WISC RAPIDS    CLOUDY    66  62  87 N7        29.89F
6HR MIN TEMP:  64; 6HR MAX TEMP:  80; 6HR PCP:  0.56;

CAMP DOUGLAS   LGT RAIN  66  66 100 NW10      29.88R FOG
                                      6HR PCP: TRACE;

$$

WIZ011>013-019>022-031-037>040-048>050-300100-
NORTHEAST WISCONSIN

CITY           SKY/WX    TMP DP  RH WIND       PRES   REMARKS
ANTIGO         LGT RAIN  64  64  99 NW5       29.91S
SHAWANO        PTSUNNY   73  68  83 CALM      29.84S
6HR MIN TEMP:  73; 6HR MAX TEMP:  81; 6HR PCP:  0.10;

OCONTO         PTSUNNY   72  67  84 S7        29.83F
6HR MIN TEMP:  72; 6HR MAX TEMP:  80;

STURGEON BAY   CLOUDY    70  63  78 S14       29.87S
6HR MIN TEMP:  66; 6HR MAX TEMP:  73;

GREEN BAY      MOSUNNY   74  66  76 S9        29.85F
6HR MIN TEMP:  74; 6HR MAX TEMP:  80;

MANITOWOC      PTSUNNY   67  63  87 SE8       29.87F
6HR MIN TEMP:  60; 6HR MAX TEMP:  72; 6HR PCP: TRACE;

APPLETON       PTSUNNY   75  64  69 S7        29.86S
CLINTONVILLE   PTSUNNY   73  64  73 S7        29.84S
OSHKOSH        PTSUNNY   75  66  73 SW8       29.85F
6HR MIN TEMP:  68; 6HR MAX TEMP:  80; 6HR PCP:  0.32;

$$

WIZ032>034-041-042-053>061-300100-
SOUTHWEST WISCONSIN

CITY           SKY/WX    TMP DP  RH WIND       PRES   REMARKS
LA CROSSE      CLOUDY    69  65  86 N7        29.86F
6HR MIN TEMP:  67; 6HR MAX TEMP:  79; 6HR PCP:  1.37;

SPARTA         CLOUDY    67  64  89 NW9       29.90R
6HR MIN TEMP:  67; 6HR MAX TEMP:  79; 6HR PCP:  0.10;

VIROQUA        CLOUDY    67  67 100 SW12      29.89R
6HR MIN TEMP:  67; 6HR MAX TEMP:  78; 6HR PCP:  0.45;

BOSCOBEL       CLOUDY    79  66  64 SW3       29.85S HX  81
6HR MIN TEMP:  77; 6HR MAX TEMP:  83;

PRAIRIE DU CHI CLOUDY    73  61  67 W8        29.86R
6HR MIN TEMP:  73; 6HR MAX TEMP:  81;

PLATTEVILLE    CLOUDY    74  69  83 S7        29.88S
6HR MIN TEMP:  73; 6HR MAX TEMP:  78;

$$

WIZ056-057-062-063-064-067-068-300100-
SOUTH CENTRAL WISCONSIN

CITY           SKY/WX    TMP DP  RH WIND       PRES   REMARKS
REEDSBURG      CLOUDY    75  66  72 SW6       29.86R
6HR MIN TEMP:  74; 6HR MAX TEMP:  79;

BARABOO/DELLS  CLOUDY    75  64  68 SW7       29.86S
6HR MIN TEMP:  73; 6HR MAX TEMP:  78;

LONE ROCK      CLOUDY    77  66  68 SW6       29.86S
6HR MIN TEMP:  70; 6HR MAX TEMP:  81; 6HR PCP:  0.22;

MINERAL POINT  PTSUNNY   75  68  78 S6        29.89S
MADISON        CLOUDY    75  66  73 SW3       29.87S
6HR MIN TEMP:  75; 6HR MAX TEMP:  79; 6HR PCP: TRACE;

MIDDLETON      CLOUDY    75  65  70 SW6       29.88S
6HR MIN TEMP:  74; 6HR MAX TEMP:  81;

WATERTOWN      PTSUNNY  N/A N/A N/A CALM      29.87R
MONROE         CLOUDY    70  64  83 S6        29.90R
JANESVILLE     PTSUNNY   79  66  65 SW9       29.88  HX  81
$$

WIZ051-052-058>065-066-070>072-300100-
SOUTHEAST WISCONSIN

CITY           SKY/WX    TMP DP  RH WIND       PRES   REMARKS
MILWAUKEE      PTSUNNY   73  67  81 VRB7      29.88S HAZE
6HR MIN TEMP:  71; 6HR MAX TEMP:  77; 6HR PCP:  0.11;

WAUKESHA       MOSUNNY   72  66  83 SW9       29.90S
MILWAUKEE/TIMM SUNNY     72  64  78 SW3       29.88F
RACINE         MOSUNNY   67  62  84 CALM      29.91S
6HR MIN TEMP:  67; 6HR MAX TEMP:  74; 6HR PCP:  0.10;

BURLINGTON     SUNNY     72  65  80 SW6       29.89S
6HR MIN TEMP:  70; 6HR MAX TEMP:  79; 6HR PCP:  0.13;

KENOSHA        MOSUNNY   77  67  71 W12       29.90R
6HR MIN TEMP:  72; 6HR MAX TEMP:  82; 6HR PCP:  0.07;

FOND DU LAC    PTSUNNY   72  68  87 S7        29.86S
6HR MIN TEMP:  71; 6HR MAX TEMP:  80; 6HR PCP:  0.03;

SHEBOYGAN      PTSUNNY   68  67  96 S6        29.87F FOG
6HR MIN TEMP:  68; 6HR MAX TEMP:  75; 6HR PCP:  0.28;

WEST BEND      PTSUNNY   70  68  94 CALM      29.88S
JUNEAU         PTSUNNY   68  65  88 CALM      29.89R
6HR MIN TEMP:  67; 6HR MAX TEMP:  78; 6HR PCP:  0.14;

$$

LSZ147-162-300100-
LAKE SUPERIOR

STATION/POSITION TIME  TEMP    WIND        PRES    WAVE
                       AIR SEA DIR/SP/G            HT/PER
                 (UTC) (F)     (DEG/KT/KT) (MB)    (FT/S)
W MID LAKE BUOY  2350   43 37  330/  8/  8   N/A     1
DEVILS ISLAND    0000   51     330/ 13/ 14   N/A
PORT WING        2300   51     290/  2/  4   N/A
SAXON HARBOR     2340   56        CALM       N/A
$$

LMZ867-665-643>646-300100-
LAKE MICHIGAN

STATION/POSITION TIME  TEMP    WIND        PRES    WAVE
                       AIR SEA DIR/SP/G            HT/PER
                 (UTC) (F)     (DEG/KT/KT) (MB)    (FT/S)
CHAMBERS ISLAND  2300   71     160/  7/ 14   N/A


USA.gov is the U.S. government's official web portal to all federal, state and local government web resources and services.